Location: Hannover
(52.3723°N, 9.7339°E)
Time: 00:16:48
(UTC+01:00)

ISS - Pass Details

Date: 08 January 2018
Orbit: 401 x 406 km, 51.6° (Epoch: 17 January)

Event Time Altitude Azimuth Distance (km) Brightness Sun altitude
Exits shadow 05:07:54 15° 89° (E) 1,192 -0.7 -29.5°
Drops below altitude 10° 05:08:35 10° 88° (E) 1,467 -0.1 -29.4°
Sets 05:10:40 0° 87° (E) 2,329 1.3 -29.1°
